[[{"header":{"parameterUnit":"m.s-1","parameterCategory":1,"la1":30.2991,"la2":30.254,"lo1":-89.0895,"lo2":-89.0444,"dy":0.0017,"dx":0.0017,"nx":28,"ny":28,"refTime":"2024-03-12T21:00:00:Z","depth":0,"parameterNumber":2,"parameterNumberName":"U-component_of_WINDS"},"data":[0,0,0,0,0,0,0,0,0,0,0,0,0,0,0,0,0,0,0,0,0,0,0,0,0,0,0,0,0,0,0,0,0,0,0,0,0,0,0,0,0,0,0,0,0,0,0,0,0,0,0,0,0,0,0,0,0,0,-3.2647,-3.2648,0,-3.269,-3.269,-3.2691,-3.2676,-3.2675,-3.2674,-3.2673,-3.2716,-3.2718,-3.272,0,0,0,0,0,0,0,0,0,0,0,0,0,-3.2555,-3.2557,-3.2647,-3.2648,-3.2648,-3.269,-3.269,-3.2691,-3.2676,-3.2675,-3.2674,-3.2673,-3.2715,-3.2717,-3.272,0,0,0,0,0,0,0,0,0,0,0,0,0,-3.2596,-3.2558,-3.2647,-3.2646,-3.2647,-3.2689,-3.269,-3.2691,-3.2676,-3.2675,-3.2674,-3.2672,-3.2714,-3.2717,-3.272,-3.2766,0,0,-3.2729,-3.273,0,0,0,0,0,0,0,0,-3.2594,-3.26,-3.2646,-3.2646,-3.2647,-3.2676,-3.2673,-3.2716,-3.2677,-3.2665,-3.2673,-3.2672,-3.2704,-3.2707,-3.2718,-3.2768,-3.277,-3.2729,-3.2731,-3.2733,-3.2733,0,0,0,0,0,0,0,-3.2591,-3.2598,-3.2664,-3.2647,-3.2647,-3.2644,-3.2648,-3.2681,-3.2692,-3.2666,-3.2665,-3.267,-3.2704,-3.2715,-3.2719,-3.2771,-3.2729,-3.2732,-3.2734,-3.2735,-3.2862,-3.2864,0,0,0,0,0,0,-3.2588,-3.2595,-3.2663,-3.2665,-3.2616,-3.2647,-3.2652,-3.2668,-3.2691,-3.2693,-3.2671,-3.2669,-3.2711,-3.2716,-3.2721,-3.2776,-3.2732,-3.2735,-3.2737,-3.2861,-3.2862,-3.2864,0,0,0,0,0,0,-3.2586,-3.2594,-3.2661,-3.263,-3.2638,-3.265,-3.2669,-3.267,-3.2681,-3.2695,-3.2697,-3.2681,-3.271,-3.2716,-3.2755,-3.2777,-3.2737,-3.2739,-3.2859,-3.2861,-3.2863,-3.2887,0,0,0,0,0,0,-3.2583,-3.2593,-3.2611,-3.2631,-3.264,-3.2695,-3.267,-3.2672,-3.2687,-3.2685,-3.2705,-3.2707,-3.2709,-3.2751,-3.2758,-3.278,-3.2742,-3.2857,-3.286,-3.2863,-3.2884,-3.289,-3.2895,0,0,0,0,0,-3.258,-3.2615,-3.2611,-3.262,-3.2662,-3.2696,-3.2701,-3.2703,-3.2689,-3.2706,-3.2716,-3.2707,-3.2775,-3.2755,-3.2763,-3.2787,-3.2855,-3.2859,-3.2862,-3.2882,-3.2889,-3.2895,0,0,0,0,0,0,-3.2596,-3.2618,-3.2614,-3.2656,-3.2675,-3.2693,-3.2715,-3.271,-3.2733,-3.273,-3.2731,-3.2736,-3.2776,-3.2786,-3.2764,-3.2833,-3.2813,-3.2818,-3.2825,-3.2831,-3.2837,-3.2832,-3.2744,0,0,0,0,0,-3.2605,-3.2631,-3.2648,-3.2684,-3.2694,-3.2703,-3.2718,-3.2719,-3.2737,-3.2745,-3.2757,-3.2775,-3.2801,-3.2817,-3.2841,-3.2887,-3.2891,-3.2908,-3.2913,-3.2917,-3.292,-3.2946,-3.2953,-3.2876,-3.2876,-3.2876,0,0,-3.2623,-3.2638,-3.2653,-3.2688,-3.2702,-3.2729,-3.2709,-3.2738,-3.2758,-3.2749,-3.2786,-3.2796,-3.2817,-3.286,-3.2879,-3.2869,-3.2944,-3.2922,-3.2925,-3.2926,-3.295,-3.2957,-3.2964,-3.2878,-3.2878,-3.2877,0,0,-3.2668,-3.2682,-3.2714,-3.2729,-3.2751,-3.2758,-3.2766,-3.2786,-3.2792,-3.283,-3.2824,-3.2849,-3.2892,-3.2908,-3.2921,-3.2976,-3.2969,-3.2985,-3.301,-3.3035,-3.3041,-3.3046,-3.3064,-3.3071,-3.2989,-3.2989,-3.2989,0,-3.2686,-3.2726,-3.273,-3.276,-3.2775,-3.277,-3.2802,-3.2817,-3.2846,-3.2857,-3.2846,-3.2902,-3.2916,-3.2962,-3.2975,-3.2987,-3.2996,-3.298,-3.304,-3.3045,-3.305,-3.3067,-3.3075,-3.299,-3.299,-3.299,-3.299,0,-3.2748,-3.2776,-3.2799,-3.2827,-3.2846,-3.2877,-3.2886,-3.2904,-3.2905,-3.2913,-3.2952,-3.2969,-3.2997,-3.3009,-3.3009,-3.3056,-3.3048,-3.3039,-3.3017,-3.3059,-3.3075,-3.3082,-3.2993,-3.2992,-3.2992,-3.2991,0,0,-3.2799,-3.2833,-3.2841,-3.2854,-3.288,-3.2902,-3.2934,-3.2962,-3.2977,-3.2999,-3.3024,-3.3064,-3.3056,-3.3071,-3.3074,-3.3095,-3.3137,-3.3083,-3.3084,-3.3091,-3.3189,-3.3194,-3.3201,-3.3134,-3.3135,-3.3137,-3.3186,0,-3.2845,-3.29,-3.2906,-3.2955,-3.2981,-3.2978,-3.3006,-3.3025,-3.3035,-3.3059,-3.307,-3.3097,-3.3085,-3.3094,-3.3116,-3.3127,-3.3156,-3.3124,-3.3157,-3.3158,-3.3148,-3.321,-3.3215,-3.3261,-3.3193,-3.3194,-3.3195,0,-3.2904,-3.2928,-3.2979,-3.3003,-3.3014,-3.3039,-3.3066,-3.3089,-3.3112,-3.3117,-3.3137,-3.3137,-3.317,-3.3151,-3.3196,-3.3174,-3.3189,-3.3197,-3.3199,-3.32,-3.3176,-3.321,-3.3276,-3.3282,-3.3205,-3.3204,-3.3204,0,-3.2935,-3.298,-3.3017,-3.3029,-3.3058,-3.3075,-3.3088,-3.3109,-3.3126,-3.3151,-3.3162,-3.319,-3.3205,-3.3227,-3.3235,-3.322,-3.328,-3.3261,-3.3285,-3.3284,-3.3294,-3.3293,-3.3361,-3.3309,-3.3309,-3.3308,-3.3308,0,-3.2983,-3.3014,-3.3031,-3.3053,-3.3088,-3.3097,-3.3132,-3.3144,-3.3164,-3.3189,-3.319,-3.3213,-3.3224,-3.325,-3.3257,-3.3293,-3.3301,-3.3306,-3.3306,-3.3304,-3.3303,-3.3311,-3.3307,-3.331,-3.331,-3.331,-3.3309,0,-3.3021,-3.3034,-3.3073,-3.3099,-3.3106,-3.3131,-3.3152,-3.3174,-3.3186,-3.3217,-3.3225,-3.3242,-3.3273,-3.3284,-3.3321,-3.3326,-3.3368,-3.3368,-3.336,-3.3359,-3.3381,-3.3378,-3.3454,-3.3464,-3.3408,-3.3409,-3.3409,0,-3.3049,-3.3073,-3.3102,-3.3119,-3.3133,-3.316,-3.3178,-3.3189,-3.3207,-3.3236,-3.3255,-3.3286,-3.331,-3.3359,-3.3374,-3.3403,-3.3402,-3.3427,-3.3406,-3.3403,-3.34,-3.3397,-3.3399,-3.3429,-3.343,-3.3431,-3.3431,0,-3.3098,-3.3104,-3.3129,-3.3158,-3.3179,-3.3202,-3.3225,-3.3239,-3.3253,-3.3274,-3.3306,-3.3325,-3.3364,-3.3394,-3.3424,-3.3438,-3.3437,-3.3438,-3.3445,-3.344,-3.3434,-3.3436,-3.3367,-3.3435,-3.3435,-3.3435,-3.3434,-3.3434,-3.313,-3.3152,-3.3175,-3.3205,-3.3223,-3.3245,-3.3267,-3.3281,-3.3308,-3.334,-3.3346,-3.3379,-3.3403,-3.3444,-3.3459,-3.3486,-3.3479,-3.3489,-3.3491,-3.3493,-3.3493,-3.3433,-3.3492,-3.3492,-3.3492,-3.3492,-3.3491,0,-3.3177,-3.3193,-3.322,-3.3252,-3.3275,-3.3274,-3.33,-3.3319,-3.3349,-3.3372,-3.3397,-3.3433,-3.3464,-3.3483,-3.3514,-3.3531,-3.3532,-3.3539,-3.3536,-3.3539,-3.3498,-3.3489,-3.3538,-3.3538,-3.3538,-3.3538,-3.3538,-3.3538,-3.3204,-3.324,-3.3249,-3.3295,-3.3311,-3.3344,-3.3359,-3.3379,-3.3397,-3.3438,-3.3464,-3.3477,-3.3499,-3.3531,-3.3559,-3.3564,-3.3575,-3.3582,-3.3586,-3.3547,-3.3542,-3.3537,-3.3528,-3.3585,-3.3585,-3.3624,-3.3625,-3.3625]},{"header":{"parameterUnit":"m.s-1","parameterCategory":1,"la1":30.2991,"la2":30.254,"lo1":-89.0895,"lo2":-89.0444,"dy":0.0017,"dx":0.0017,"nx":28,"ny":28,"refTime":"2024-03-12T21:00:00:Z","depth":0,"parameterNumber":3,"parameterNumberName":"V-component_of_WINDS"},"data":[0,0,0,0,0,0,0,0,0,0,0,0,0,0,0,0,0,0,0,0,0,0,0,0,0,0,0,0,0,0,0,0,0,0,0,0,0,0,0,0,0,0,0,0,0,0,0,0,0,0,0,0,0,0,0,0,0,0,2.0305,2.0306,0,2.0395,2.0396,2.0397,2.0497,2.0498,2.0499,2.0501,2.0591,2.0592,2.0593,0,0,0,0,0,0,0,0,0,0,0,0,0,2.0217,2.0218,2.0305,2.0306,2.0307,2.0395,2.0397,2.0398,2.0496,2.0498,2.05,2.0501,2.059,2.0591,2.0593,0,0,0,0,0,0,0,0,0,0,0,0,0,2.0276,2.0219,2.0305,2.0367,2.0374,2.0395,2.0397,2.0398,2.0496,2.0498,2.05,2.0502,2.059,2.0591,2.0593,2.0559,0,0,2.0598,2.0598,0,0,0,0,0,0,0,0,2.0273,2.0279,2.0357,2.0363,2.037,2.0437,2.0399,2.0452,2.0495,2.0449,2.0501,2.0503,2.0538,2.0544,2.0556,2.0564,2.0567,2.0598,2.0599,2.0599,2.06,0,0,0,0,0,0,0,2.0268,2.0276,2.0341,2.0358,2.0366,2.039,2.0401,2.0409,2.048,2.0454,2.0461,2.0471,2.0542,2.0554,2.0559,2.0569,2.0598,2.0599,2.06,2.0601,2.0557,2.0555,0,0,0,0,0,0,2.0255,2.0272,2.0338,2.0343,2.0326,2.039,2.0402,2.0413,2.048,2.0493,2.0469,2.0475,2.055,2.0557,2.0562,2.0529,2.0599,2.0601,2.0602,2.0559,2.0556,2.0554,0,0,0,0,0,0,2.0253,2.026,2.0334,2.031,2.0321,2.0389,2.0401,2.0414,2.0427,2.0492,2.0505,2.0468,2.0552,2.056,2.056,2.0534,2.0602,2.0603,2.0561,2.0558,2.0555,2.0462,0,0,0,0,0,0,2.025,2.0259,2.0246,2.0309,2.0322,2.0331,2.0399,2.0414,2.0429,2.0438,2.0495,2.0506,2.0554,2.0557,2.0562,2.0537,2.0604,2.0564,2.056,2.0556,2.0467,2.0456,2.0446,0,0,0,0,0,2.0246,2.0215,2.0245,2.0253,2.0308,2.0329,2.0336,2.0393,2.0427,2.0415,2.0458,2.0504,2.0536,2.0556,2.0562,2.0538,2.0566,2.0561,2.0556,2.0472,2.0458,2.0446,0,0,0,0,0,0,2.0146,2.0224,2.0259,2.0247,2.0281,2.0346,2.0333,2.0376,2.04,2.0407,2.0476,2.0488,2.0481,2.0509,2.0531,2.051,2.0558,2.0554,2.0492,2.0479,2.0468,2.0461,2.0606,0,0,0,0,0,2.0123,2.0134,2.0201,2.0184,2.02,2.0263,2.0274,2.0315,2.0353,2.0367,2.041,2.0443,2.0462,2.0472,2.0491,2.0472,2.0487,2.0458,2.0447,2.0438,2.0434,2.0428,2.0417,2.0538,2.0538,2.0538,0,0,2.0075,2.0119,2.0121,2.0166,2.0197,2.0206,2.0274,2.0281,2.0289,2.0368,2.0372,2.0404,2.0447,2.0437,2.0436,2.0461,2.0404,2.0432,2.0424,2.0425,2.0422,2.041,2.04,2.0535,2.0536,2.0536,0,0,1.9992,2.0026,2.0017,2.0047,2.0094,2.0137,2.0135,2.0194,2.0219,2.0224,2.0284,2.0295,2.0323,2.0352,2.037,2.0302,2.0346,2.0306,2.0249,2.0242,2.0233,2.0225,2.0202,2.0192,2.0302,2.0301,2.0301,0,1.9926,1.9944,2.0006,2.0011,2.0029,2.0103,2.0095,2.0121,2.0171,2.0182,2.021,2.025,2.0283,2.0283,2.0267,2.0278,2.0279,2.03,2.0229,2.0222,2.0215,2.0194,2.0185,2.0296,2.0297,2.0297,2.0298,0,1.9861,1.9872,1.9859,1.9908,1.9925,1.9922,1.9985,1.9995,2.0035,2.0075,2.008,2.0124,2.0155,2.0158,2.0196,2.0164,2.0178,2.0217,2.0266,2.0197,2.0179,2.0171,2.0289,2.0291,2.0292,2.0294,0,0,1.9716,1.9802,1.9796,1.982,1.9879,1.9889,1.989,1.9922,1.993,1.9962,1.9966,1.999,2.0027,2.0048,2.0091,2.0085,2.003,2.0125,2.0127,2.0106,1.9998,1.9969,1.9959,2.006,2.0058,2.0057,1.9995,0,1.9645,1.9653,1.9711,1.9702,1.9715,1.9786,1.9788,1.9824,1.9862,1.9878,1.9919,1.9936,1.9982,1.9996,1.9993,2.0037,2.0009,2.0042,2.0064,2.0064,2.0052,1.9949,1.9918,1.9857,1.9988,1.9987,1.9986,0,1.9562,1.9592,1.9585,1.9646,1.9653,1.9654,1.9689,1.9703,1.9746,1.9774,1.9798,1.9847,1.9854,1.99,1.991,1.9932,1.9944,1.9967,1.9966,1.9971,2.0021,1.9951,1.9839,1.983,1.9975,1.9976,1.9977,0,1.9459,1.9497,1.9499,1.9517,1.9588,1.9587,1.9616,1.9662,1.9678,1.9708,1.972,1.975,1.9767,1.9789,1.9845,1.9873,1.985,1.99,1.9874,1.9872,1.9865,1.9865,1.9754,1.9872,1.9872,1.9872,1.9872,0,1.9373,1.9366,1.9454,1.9455,1.945,1.9517,1.951,1.9547,1.9587,1.9596,1.9659,1.9667,1.974,1.9756,1.98,1.9803,1.981,1.9833,1.9845,1.9828,1.9825,1.9837,1.9843,1.987,1.987,1.9871,1.9871,0,1.9257,1.9315,1.9322,1.939,1.9406,1.94,1.9458,1.9462,1.9504,1.9516,1.9522,1.9589,1.9611,1.9669,1.9706,1.9736,1.9727,1.9748,1.9713,1.9721,1.9691,1.9693,1.9585,1.9574,1.9697,1.9696,1.9695,0,1.9199,1.9196,1.9264,1.9275,1.9303,1.932,1.9338,1.9404,1.942,1.947,1.9468,1.9496,1.9522,1.9554,1.9606,1.9635,1.9658,1.9618,1.9663,1.9646,1.9659,1.9659,1.9659,1.9608,1.9606,1.9605,1.9604,0,1.909,1.912,1.9143,1.9177,1.9197,1.9227,1.926,1.9266,1.9341,1.9355,1.938,1.94,1.9439,1.9466,1.9504,1.9534,1.9581,1.959,1.9585,1.9568,1.9548,1.956,1.9687,1.9592,1.9593,1.9594,1.9594,1.9595,1.9002,1.9004,1.9052,1.9077,1.911,1.914,1.9148,1.9192,1.9214,1.9252,1.929,1.9311,1.9356,1.9412,1.9439,1.9457,1.9481,1.9474,1.9473,1.947,1.9463,1.9545,1.9464,1.9464,1.9465,1.9465,1.9465,0,1.8898,1.8933,1.8955,1.9001,1.9021,1.9065,1.9105,1.9118,1.9136,1.9175,1.92,1.9229,1.9257,1.9311,1.9343,1.9347,1.937,1.9353,1.9354,1.936,1.9439,1.944,1.9335,1.9335,1.9335,1.9335,1.9335,1.9335,1.8846,1.8851,1.8887,1.891,1.8946,1.8968,1.8987,1.9016,1.9047,1.9077,1.9101,1.9137,1.9182,1.9219,1.9246,1.9262,1.9271,1.9248,1.927,1.9342,1.9355,1.9366,1.9368,1.9249,1.9249,1.919,1.919,1.9189]}]]